This is the latest recevied weather packets stored in our database for station/object K8WEH. If no packets are shown the sender has not sent any weather packets the latest 10 day(s).
| Time | Temp. | Humidity | Pressure | Rain* | Wind** | Luminosity | Snow |
|---|---|---|---|---|---|---|---|
| 1777500914 | 16.11° C | 75% | 1011.4 hPa | 0 mm | - | - | - |
| 1777500614 | 16.11° C | 75% | 1011.3 hPa | 0 mm | - | - | - |
| 1777500314 | 16.11° C | 75% | 1011.3 hPa | 0 mm | - | - | - |
| 1777500014 | 16.11° C | 75% | 1011.2 hPa | 0 mm | - | - | - |
| 1777499712 | 15.56° C | 74% | 1011.1 hPa | 0 mm | - | - | - |
| 1777499412 | 15.56° C | 74% | 1011.2 hPa | 0 mm | - | - | - |
| 1777499110 | 15.56° C | 73% | 1011.2 hPa | 0 mm | - | - | - |
| 1777498810 | 15.56° C | 72% | 1011.2 hPa | 0 mm | - | - | - |
| 1777498509 | 15.56° C | 73% | 1011 hPa | 0 mm | - | - | - |
| 1777498207 | 15° C | 73% | 1010.9 hPa | 0 mm | - | - | - |
| 1777497908 | 15° C | 71% | 1011.1 hPa | 0 mm | - | - | - |
| 1777497607 | 15° C | 71% | 1011.1 hPa | 0 mm | - | - | - |
| 1777497309 | 15° C | 67% | 1011.1 hPa | 0 mm | - | - | - |
| 1777497007 | 15° C | 71% | 1011.2 hPa | 0 mm | - | - | - |
| 1777496706 | 15° C | 69% | 1011.1 hPa | 0 mm | - | - | - |
| 1777496405 | 15° C | 63% | 1011 hPa | 0 mm | - | - | - |
| 1777496104 | 15° C | 60% | 1010.9 hPa | 0 mm | - | - | - |
| 1777495803 | 14.44° C | 60% | 1010.9 hPa | 0.25 mm | - | - | - |
| 1777495503 | 14.44° C | 61% | 1010.9 hPa | 0.25 mm | - | - | - |
| 1777495204 | 13.89° C | 57% | 1010.9 hPa | 0.25 mm | - | - | - |
| 1777494902 | 13.89° C | 56% | 1010.7 hPa | 0.25 mm | - | - | - |
| 1777494603 | 13.89° C | 55% | 1010.8 hPa | 0.25 mm | - | - | - |
| 1777494303 | 13.89° C | 55% | 1011 hPa | 0.25 mm | - | - | - |
| 1777494002 | 13.89° C | 56% | 1011 hPa | 0.25 mm | - | - | - |
| 1777493702 | 14.44° C | 53% | 1011 hPa | 0.25 mm | - | - | - |
* Rain latest hour (hover to see other rain measurements)
** Current wind speed in m/s (hover to see current wind gust speed)